EW9318 Weather Reports


time (UTC)temp
C
wind
direction
speed
KPH
gust
KPH
rain 1hr
cm
rain 24hr
cm
rain mn
cm
humidity
%
barometer
mb
20260505223016 10 301 6.4 12.9 0.00 0.03 0.00 44 1006.9
20260505222517 10 295 4.8 16.1 0.00 0.03 0.00 44 1006.8
20260505222017 10 282 8.0 16.1 0.00 0.03 0.00 44 1006.7
20260505221516 10 286 8.0 14.5 0.00 0.03 0.00 43 1006.8
20260505221057 10 284 9.7 12.9 0.00 0.03 0.00 43 1006.8
20260505220516 10 282 8.0 17.7 0.00 0.03 0.00 43 1006.8
20260505220016 10 277 11.3 17.7 0.00 0.03 0.00 43 1006.8
20260505215516 10 288 9.7 17.7 0.00 0.03 0.00 44 1006.7
20260505215036 10 286 9.7 19.3 0.00 0.03 0.00 43 1006.8
20260505214516 10 277 11.3 19.3 0.00 0.03 0.00 42 1006.8
20260505214016 10 267 9.7 20.9 0.00 0.03 0.00 44 1006.8
20260505213516 10 264 11.3 20.9 0.00 0.03 0.00 44 1006.7
20260505213016 10 290 11.3 17.7 0.00 0.03 0.00 43 1006.7
20260505212516 10 283 6.4 20.9 0.00 0.03 0.00 43 1006.9
20260505212016 10 311 9.7 20.9 0.00 0.03 0.00 43 1006.9
20260505211517 10 280 8.0 17.7 0.00 0.03 0.00 45 1006.9
20260505211016 10 280 11.3 19.3 0.00 0.03 0.00 43 1006.9
20260505210517 10 281 14.5 19.3 0.00 0.03 0.00 42 1006.9
20260505210016 10 279 11.3 19.3 0.00 0.03 0.00 43 1006.8
20260505205516 10 308 6.4 17.7 0.00 0.03 0.00 42 1006.8
20260505205016 10 268 12.9 19.3 0.00 0.03 0.00 43 1006.8
20260505204516 10 291 9.7 19.3 0.00 0.03 0.00 42 1006.8
20260505204016 10 280 11.3 22.5 0.00 0.03 0.00 42 1006.9
20260505203516 10 271 11.3 22.5 0.00 0.03 0.00 42 1007.0
20260505203017 10 303 14.5 22.5 0.00 0.03 0.00 41 1007.0
20260505202517 10 286 12.9 22.5 0.00 0.03 0.00 41 1007.2
20260505202016 10 303 12.9 20.9 0.00 0.03 0.00 41 1007.2
20260505201516 10 285 11.3 19.3 0.00 0.03 0.00 42 1007.2
20260505201016 10 283 9.7 20.9 0.00 0.03 0.00 42 1007.1
20260505200537 10 282 12.9 24.1 0.00 0.03 0.00 41 1007.1
20260505200016 10 300 14.5 24.1 0.00 0.03 0.00 41 1007.1
20260505195516 10 307 11.3 22.5 0.00 0.03 0.00 42 1007.1
20260505195016 10 275 12.9 22.5 0.00 0.03 0.00 42 1007.1
20260505194517 10 276 11.3 19.3 0.00 0.03 0.00 41 1007.2
20260505194016 10 296 11.3 20.9 0.00 0.03 0.00 41 1007.2
20260505193516 10 310 11.3 22.5 0.00 0.03 0.00 42 1007.2
20260505193018 10 289 12.9 25.7 0.00 0.03 0.00 41 1007.3
20260505192516 10 309 16.1 25.7 0.00 0.03 0.00 41 1007.3
20260505192016 10 304 14.5 25.7 0.00 0.03 0.00 42 1007.3
20260505191517 10 291 16.1 25.7 0.00 0.03 0.00 40 1007.3
20260505191037 10 278 12.9 22.5 0.00 0.03 0.00 41 1007.2
20260505190517 10 294 12.9 24.1 0.00 0.03 0.00 41 1007.1
20260505190036 10 300 16.1 24.1 0.00 0.03 0.00 39 1007.0
20260505185516 10 298 14.5 24.1 0.00 0.03 0.00 39 1006.9
20260505185017 10 296 14.5 24.1 0.00 0.03 0.00 37 1006.8
20260505184538 10 282 11.3 20.9 0.00 0.03 0.00 39 1006.8
20260505184017 10 295 11.3 20.9 0.00 0.03 0.00 39 1006.8
20260505183516 10 278 14.5 22.5 0.00 0.03 0.00 38 1006.7
20260505183016 10 311 12.9 22.5 0.00 0.03 0.00 37 1006.7
20260505182516 10 284 12.9 30.6 0.00 0.03 0.00 38 1006.8
20260505182016 10 275 14.5 30.6 0.00 0.03 0.00 37 1006.8
20260505181516 10 277 14.5 25.7 0.00 0.03 0.00 37 1006.8
20260505181016 10 286 14.5 29.0 0.00 0.03 0.00 39 1006.6
20260505180556 10 311 17.7 29.0 0.00 0.03 0.00 36 1006.7
20260505180016 10 315 12.9 22.5 0.00 0.03 0.00 38 1006.5
20260505175516 10 296 12.9 27.4 0.00 0.03 0.00 36 1006.5
20260505175016 10 277 17.7 33.8 0.00 0.03 0.00 36 1006.6
20260505174516 10 288 19.3 33.8 0.00 0.03 0.00 36 1006.7
20260505174016 10 299 14.5 22.5 0.00 0.03 0.00 37 1006.5
20260505173516 10 305 14.5 25.7 0.00 0.03 0.00 38 1006.4
20260505173016 10 320 16.1 25.7 0.00 0.03 0.00 39 1006.5
20260505172517 10 323 16.1 24.1 0.00 0.03 0.00 36 1006.2
20260505172036 10 329 16.1 27.4 0.00 0.03 0.00 37 1006.2
20260505171516 10 327 16.1 27.4 0.00 0.03 0.00 39 1006.2
20260505171056 10 302 16.1 25.7 0.00 0.03 0.00 36 1006.3
20260505170516 10 300 12.9 27.4 0.00 0.03 0.00 41 1005.9
20260505170016 10 314 16.1 27.4 0.00 0.03 0.00 38 1006.0
20260505165517 10 329 14.5 25.7 0.00 0.03 0.00 40 1005.9
20260505165016 10 299 14.5 24.1 0.00 0.03 0.00 39 1005.9
20260505164537 10 321 11.3 22.5 0.00 0.03 0.00 39 1005.9
20260505164016 10 301 14.5 27.4 0.00 0.03 0.00 39 1005.7
20260505163516 10 322 16.1 27.4 0.00 0.03 0.00 40 1005.7
20260505163015 10 290 12.9 20.9 0.00 0.03 0.00 42 1005.7
20260505162538 10 256 11.3 25.7 0.00 0.03 0.00 42 1005.9
20260505162016 10 292 12.9 25.7 0.00 0.03 0.00 41 1006.0
20260505161537 10 330 16.1 24.1 0.00 0.03 0.00 42 1006.2
20260505161015 10 340 12.9 24.1 0.00 0.03 0.00 43 1006.0
20260505160516 9 308 14.5 24.1 0.00 0.03 0.00 41 1006.1
20260505153016 8 295 12.9 20.9 0.00 0.03 0.00 44 1006.0
20260505152516 8 314 11.3 22.5 0.00 0.03 0.00 44 1005.9
20260505152017 8 310 14.5 24.1 0.00 0.03 0.00 44 1006.1
20260505151515 8 303 14.5 24.1 0.00 0.03 0.00 44 1006.1
20260505151016 8 298 12.9 22.5 0.00 0.03 0.00 44 1006.4
20260505150517 8 293 6.4 17.7 0.00 0.03 0.00 48 1006.4
20260505140515 7 302 14.5 27.4 0.00 0.03 0.00 59 1005.5
20260505125015 7 297 12.9 20.9 0.00 0.03 0.00 75 1005.5
20260505124515 7 295 9.7 17.7 0.00 0.03 0.00 75 1005.5
20260505124035 7 291 9.7 19.3 0.00 0.03 0.00 76 1005.1
20260505123516 7 304 11.3 19.3 0.00 0.03 0.00 76 1004.8
20260505123016 7 308 6.4 17.7 0.00 0.03 0.00 77 1004.3
20260505122515 7 299 11.3 17.7 0.00 0.03 0.00 77 1004.3
20260505122015 7 284 8.0 19.3 0.00 0.03 0.00 78 1004.6
20260505121515 7 288 11.3 19.3 0.00 0.03 0.00 78 1004.5
20260505121015 7 276 12.9 24.1 0.00 0.03 0.00 78 1004.4
20260505120515 7 282 14.5 24.1 0.00 0.03 0.00 77 1004.3
20260505120015 8 288 16.1 24.1 0.00 0.03 0.00 76 1004.1
20260505115516 8 287 12.9 22.5 0.00 0.03 0.00 74 1004.1
20260505115015 8 298 8.0 20.9 0.00 0.03 0.00 74 1003.7
20260505114516 8 297 11.3 20.9 0.00 0.03 0.00 73 1003.9
20260505114016 8 295 8.0 16.1 0.00 0.03 0.00 73 1003.8
20260505113515 8 289 8.0 14.5 0.00 0.03 0.00 73 1003.5
20260505113015 8 307 8.0 14.5 0.00 0.03 0.00 73 1003.6
20260505112515 8 299 4.8 9.7 0.00 0.03 0.00 73 1003.2
20260505112016 8 291 4.8 14.5 0.00 0.03 0.00 74 1003.3
20260505111516 8 271 8.0 14.5 0.00 0.03 0.00 73 1003.3
20260505111015 8 282 6.4 12.9 0.00 0.03 0.00 73 1003.2
20260505110515 8 283 6.4 12.9 0.00 0.03 0.00 72 1003.0
20260505102037 9 251 12.9 17.7 0.00 0.03 0.00 66 1002.4
20260505101517 9 260 9.7 14.5 0.00 0.03 0.00 66 1002.0
20260505101018 9 263 9.7 17.7 0.00 0.03 0.00 65 1002.1
20260505100557 10 264 11.3 17.7 0.00 0.03 0.00 64 1002.1
20260505100017 10 271 9.7 17.7 0.00 0.03 0.00 64 1001.9
20260505095517 10 272 9.7 17.7 0.00 0.03 0.00 63 1002.1
20260505095017 10 261 11.3 17.7 0.00 0.03 0.00 64 1002.3
20260505094518 10 261 11.3 17.7 0.00 0.03 0.00 64 1002.2
20260505094017 10 259 8.0 16.1 0.00 0.03 0.00 65 1001.9
20260505093517 10 261 9.7 16.1 0.00 0.03 0.00 64 1001.8
20260505093018 10 260 8.0 12.9 0.00 0.03 0.00 64 1001.6
20260505092517 10 267 8.0 12.9 0.00 0.03 0.00 64 1001.6
20260505092017 10 284 4.8 12.9 0.00 0.03 0.00 62 1001.3
20260505091537 10 302 3.2 12.9 0.00 0.03 0.00 59 1000.6
20260505091017 10 261 6.4 17.7 0.00 0.03 0.00 59 1001.7
20260505090518 10 281 9.7 17.7 0.00 0.03 0.00 58 1001.7
20260505090017 11 285 6.4 17.7 0.00 0.03 0.00 58 1001.3
20260505085517 11 292 8.0 16.1 0.00 0.03 0.00 58 1001.2
20260505085017 11 290 9.7 16.1 0.00 0.03 0.00 58 1001.2
20260505084518 11 294 8.0 17.7 0.00 0.03 0.00 58 1000.6
20260505084017 11 284 8.0 17.7 0.00 0.03 0.00 58 1000.8
20260505083518 11 295 9.7 16.1 0.00 0.03 0.00 59 1001.1
20260505083017 11 288 11.3 16.1 0.00 0.03 0.00 61 1001.1
20260505082518 11 283 8.0 16.1 0.00 0.03 0.00 61 1000.8
20260505082017 11 284 4.8 11.3 0.00 0.03 0.00 61 1000.2
20260505081517 11 285 4.8 14.5 0.00 0.03 0.00 62 1000.3
20260505081038 11 286 8.0 14.5 0.00 0.03 0.00 61 1000.4
20260505080517 11 293 8.0 17.7 0.00 0.03 0.00 61 1000.6
20260505080016 11 303 11.3 17.7 0.00 0.03 0.00 60 1000.2
20260505075517 11 297 6.4 14.5 0.00 0.03 0.00 61 1000.1
20260505075038 11 305 4.8 14.5 0.00 0.03 0.00 61 1000.1
20260505074537 12 277 4.8 12.9 0.00 0.03 0.00 61 1000.2
20260505074018 12 285 6.4 14.5 0.00 0.03 0.00 61 999.8
20260505073516 12 292 8.0 17.7 0.00 0.03 0.00 60 999.9
20260505073017 12 301 12.9 19.3 0.00 0.03 0.00 60 1000.2
20260505072516 12 288 11.3 20.9 0.00 0.03 0.00 61 1000.2
20260505072017 12 281 9.7 20.9 0.00 0.03 0.00 60 1000.0
20260505071517 12 287 8.0 14.5 0.00 0.03 0.00 64 1000.3
20260505071017 12 274 6.4 20.9 0.00 0.03 0.00 64 1000.2
20260505070516 12 274 12.9 20.9 0.00 0.03 0.00 64 1000.6
20260505070018 12 277 11.3 17.7 0.00 0.03 0.00 63 1000.6
20260505065516 12 287 8.0 17.7 0.00 0.03 0.00 64 1000.2
20260505065016 13 291 11.3 20.9 0.00 0.03 0.00 65 999.9
20260505064516 13 269 9.7 20.9 0.00 0.03 0.00 66 999.9
20260505064037 13 260 9.7 14.5 0.00 0.03 0.00 66 999.8
20260505063516 13 261 8.0 20.9 0.00 0.03 0.00 65 999.4
20260505063017 13 265 11.3 20.9 0.00 0.03 0.00 65 999.6
20260505062517 13 272 8.0 14.5 0.00 0.03 0.00 67 999.9
20260505062016 13 280 8.0 14.5 0.00 0.03 0.00 70 999.9
20260505061517 13 264 6.4 14.5 0.00 0.03 0.00 71 999.8
20260505061016 13 272 8.0 12.9 0.00 0.03 0.00 71 999.8
20260505060536 13 280 8.0 17.7 0.00 0.03 0.00 71 999.8
20260505060057 13 281 8.0 17.7 0.00 0.03 0.00 72 999.7
20260505055518 13 271 9.7 19.3 0.00 0.03 0.00 72 999.4
20260505055018 13 271 11.3 19.3 0.00 0.03 0.00 72 999.3
20260505054518 14 266 9.7 19.3 0.00 0.03 0.00 72 999.0
20260505054016 14 275 11.3 25.7 0.00 0.03 0.00 72 999.1
20260505053516 15 274 12.9 25.7 0.00 0.03 0.00 72 999.0
20260505053018 15 276 12.9 24.1 0.00 0.03 0.00 72 998.9
20260505052516 15 274 11.3 20.9 0.00 0.03 0.00 75 998.7
20260505052016 15 275 11.3 20.9 0.00 0.03 0.00 76 998.7
20260505051517 14 274 9.7 17.7 0.00 0.03 0.00 78 998.7
20260505051016 14 262 11.3 19.3 0.00 0.03 0.00 80 998.6
20260505050516 14 253 9.7 19.3 0.00 0.03 0.00 81 998.5
20260505041516 15 175 3.2 9.7 0.03 0.03 0.00 79 997.9
20260505041016 15 195 4.8 11.3 0.03 0.03 0.00 78 998.0
20260505040516 15 180 4.8 14.5 0.03 0.03 0.00 77 997.9
20260505040016 15 180 4.8 14.5 0.03 0.03 0.03 76 998.1
20260505035515 15 179 8.0 14.5 0.03 0.03 0.03 74 998.1
20260505035017 16 227 6.4 16.1 0.03 0.03 0.03 72 998.3
20260505034537 16 306 8.0 16.1 0.00 0.00 0.00 72 998.8
20260505034017 16 278 8.0 14.5 0.00 0.00 0.00 72 998.8
20260505033518 16 234 6.4 12.9 0.00 0.00 0.00 70 998.3
20260505033017 16 251 6.4 17.7 0.00 0.00 0.00 70 998.2
20260505032517 16 229 8.0 17.7 0.00 0.00 0.00 70 998.0
20260505032017 16 207 4.8 14.5 0.00 0.00 0.00 70 997.8
20260505031538 16 202 6.4 16.1 0.00 0.00 0.00 69 997.7
20260505031017 16 206 9.7 17.7 0.00 0.00 0.00 69 997.6
20260505030517 16 184 8.0 22.5 0.00 0.00 0.00 68 997.5
20260505030018 16 176 8.0 22.5 0.00 0.00 0.00 68 997.4
20260505025516 16 189 9.7 22.5 0.00 0.00 0.00 67 997.4
20260505025017 16 197 8.0 17.7 0.00 0.00 0.00 67 997.2
20260505024516 16 198 8.0 17.7 0.00 0.00 0.00 67 997.1
20260505024017 16 200 8.0 19.3 0.00 0.00 0.00 67 997.0
20260505023518 16 205 9.7 20.9 0.00 0.00 0.00 67 997.1
20260505023017 17 201 9.7 25.7 0.00 0.00 0.00 67 997.2
20260505022516 17 201 11.3 29.0 0.00 0.00 0.00 67 997.3
20260505022016 17 213 9.7 32.2 0.00 0.00 0.00 66 997.4
20260505021517 17 223 14.5 32.2 0.00 0.00 0.00 65 997.7
20260505021017 17 214 14.5 30.6 0.00 0.00 0.00 65 997.6
20260505020518 17 233 14.5 30.6 0.00 0.00 0.00 64 997.7
20260505020016 18 232 14.5 35.4 0.00 0.00 0.00 63 997.6
20260505015516 18 231 20.9 35.4 0.00 0.00 0.00 63 997.4
20260505015057 18 210 17.7 35.4 0.00 0.00 0.00 63 997.0
20260505014537 18 207 14.5 29.0 0.00 0.00 0.00 64 997.0
20260505014016 18 216 14.5 33.8 0.00 0.00 0.00 64 996.8
20260505013536 18 225 19.3 33.8 0.00 0.00 0.00 64 996.6
20260505013017 18 224 14.5 35.4 0.00 0.00 0.00 64 996.5
20260505012517 18 217 17.7 38.6 0.00 0.00 0.00 65 996.4
20260505012016 19 207 12.9 38.6 0.00 0.00 0.00 66 996.4
20260505011517 19 206 11.3 27.4 0.00 0.00 0.00 64 996.4
20260505011016 19 193 12.9 27.4 0.00 0.00 0.00 63 996.2
20260505010516 20 210 12.9 27.4 0.00 0.00 0.00 62 996.2
20260505010016 20 210 16.1 27.4 0.00 0.00 0.00 61 996.1
20260505005516 20 186 16.1 29.0 0.00 0.00 0.00 61 996.0
20260505005017 20 213 14.5 30.6 0.00 0.00 0.00 60 996.1
20260505004517 20 192 14.5 30.6 0.00 0.00 0.00 59 996.3
20260505004017 20 190 12.9 35.4 0.00 0.00 0.00 58 996.4
20260505003516 20 202 14.5 35.4 0.00 0.00 0.00 56 996.6
20260505003016 21 205 14.5 32.2 0.00 0.00 0.00 53 996.5
20260505002516 21 204 17.7 35.4 0.00 0.00 0.00 52 996.5
20260505002016 21 220 16.1 35.4 0.00 0.00 0.00 50 996.3
20260505001517 21 220 20.9 32.2 0.00 0.00 0.00 48 996.1
20260505001016 21 209 16.1 33.8 0.00 0.00 0.00 48 996.0
20260505000516 21 224 20.9 35.4 0.00 0.00 0.00 48 996.0
20260505000056 22 231 20.9 35.4 0.00 0.00 0.00 47 996.1
20260504235536 22 244 22.5 49.9 0.00 0.00 0.00 46 996.1
20260504235016 22 240 22.5 49.9 0.00 0.00 0.00 39 996.1
20260504234516 22 227 14.5 24.1 0.00 0.00 0.00 38 996.1
20260504234017 22 211 9.7 22.5 0.00 0.00 0.00 39 996.1
20260504233516 22 217 6.4 17.7 0.00 0.00 0.00 39 996.0
20260504233016 22 231 9.7 17.7 0.00 0.00 0.00 38 996.0
20260504232516 22 231 11.3 19.3 0.00 0.00 0.00 38 996.1
20260504232016 22 232 11.3 22.5 0.00 0.00 0.00 37 996.1
20260504231518 22 226 12.9 22.5 0.00 0.00 0.00 37 996.2
20260504231016 22 240 12.9 24.1 0.00 0.00 0.00 37 996.3
20260504230518 22 226 14.5 24.1 0.00 0.00 0.00 37 996.3
20260504230016 23 234 14.5 29.0 0.00 0.00 0.00 37 996.4
20260504225516 23 240 17.7 29.0 0.00 0.00 0.00 36 996.4
20260504225016 23 229 16.1 29.0 0.00 0.00 0.00 36 996.6
20260504224536 23 228 14.5 24.1 0.00 0.00 0.00 37 996.6
20260504224016 23 230 12.9 20.9 0.00 0.00 0.00 37 996.7
20260504223517 23 243 12.9 24.1 0.00 0.00 0.00 37 996.8